Location: Hurstbourne Priors
(51.2000°N, 1.3667°W)
Time: 22:26:16
(UTC+00:00)

Altair - Pass Details

Date: 11 April 2021
Orbit: 1501 x 1683 km, 47.2° (Epoch: 13 May)

Event Time Altitude Azimuth Distance (km) Brightness Sun altitude
Rises 14:55:41 0° 287° (WNW) 4,681 10.5 35.0°
Reaches altitude 10° 14:59:19 10° 276° (W) 3,678 10.3 34.6°
Maximum altitude 15:06:30 27° 224° (SW) 2,588 10.8 33.6°
Drops below altitude 10° 15:13:40 10° 171° (S) 3,646 9.9 32.7°
Sets 15:17:16 0° 160° (SSE) 4,632 10.1 32.2°
